COSMOS 2251 DEB, 36366

Orbit data source: Space-Track

COSMOS 2251 DEB, 36366 is space debris in LEO originally from a launch on Wed, 16 Jun 1993 UTC launched from the Plesetsk Missile And Space Complex (PKMTR). The debris from Iridium 33, an American commercial communications satellite, has been tracked extensively since its accidental collision with the defunct Russian satellite Cosmos 2251 in 2009. This event, occurring at high speed in low Earth orbit (LEO), generated thousands of pieces of space debris, significantly increasing the risk of further collisions. The Iridium 33 debris cloud has impacted space traffic management and orbital debris mitigation strategies, making it a subject of ongoing study in space situational awareness.

Loading next visibility...
Identifier
36366, 1993-036AYT
Orbit
LEO
Country
Flag of CISCIS
Related business
Manufacturer
Unknown
Mission
Spacecraft
Bus & Motor
Unknown
Mass
Unknown
Launch date (UTC)
1993-06-16 (33 years ago)
Launch vehicle
Unknown
Launch site
Plesetsk Missile And Space Complex (PKMTR)
Object type
Payload
Rocket body
Debris
Shape & HBR
Unknown shape, 0.1 m
Radar Cross Section
Small (<0.1 m²)

Expand to show TLE details & history
Last TLE update: 1 day ago

TLE from 1 day ago
0 COSMOS 2251 DEB
1 36366U 93036AYT 26236.52741989  .00002421  00000-0  81777-3 0  9991
2 36366  74.0642 167.1650 0085963 134.5788 226.2425 14.35350714899420
Epoch: 2026-08-24T12:39Z
TLE epoch observation values (Epoch: 2026-08-24T12:39:29.078Z)
Latitude
0.00006°
Longitude
4.48602°
Altitude
819.315 km
Speed
7.421 km/s
True Right ascension
11h 08m 39s
True Declination
0° 00' 00"
Sunlit
Object was in daylight at epoch
Visualization orbit readout
Latitude
Unknown
Longitude
Unknown
Altitude
Unknown
Speed
Unknown
Apparent Right ascension
Unknown
Apparent Declination
Unknown
Sunlit
N/A
Visualization observer readout
Local Sidereal Time
13:49:47
Azimuth
Unknown
Elevation
Unknown
Doppler factor
Unknown
Orbital elements
Apogee altitude
832.984 km
Perigee altitude
710.063 km
Semi-major axis
7,149.66 km
Eccentricity
0.0086
Inclination
74.0642°
RAAN
167.165°
Arg. of periapsis
134.5788°
True anomaly
225.53628°
Mean anomaly
226.2425°
Eccentric anomaly
225.88887°
Mean motion
3.59017 °/min
Orbital period
100.27 mins
BSTAR
0.00081777
Loading maneuver chart data...
Computing Atmospheric mass density...

Documentation

Showing up to 5 results
|